POLAR

Last updated on Jan. 25, 2020, 4:44 a.m. UTC

1 23802U 96013A   20023.36656778  .00000241  00000-0  00000-0 0  9996
2 23802  78.7063 251.8491 6469468 288.1252  14.9774  1.29845725114516
UTC
Height (km)
Latitude
Longitude
Inclination
Orbital Period
UTC large
Height (km)
Speed (km/s)
/
Latitude / Longitude
Inclination (degrees)
Orbital Period (minutes)
Azimuth
Elevation
Range (km)
Doppler Factor
iOS Compass Heading
iOS Angle

Next 30 passes for location: Hong Kong

Rise time Rise Azimuth (degrees) Set time Set Azimuth (degrees) Duration Max altitude (degrees)

No matching passes for this satellites